Location: Newark
(54.6833°N, 25.2833°E)
Time: 12:46:19
(UTC+00:00)

Altair - Pass Details

Date: 14 November 2019
Orbit: 1502 x 1682 km, 47.2° (Epoch: 05 December)

Event Time Altitude Azimuth Distance (km) Brightness Sun altitude
Rises 02:04:11 0° 206° (SSW) 4,628 - -31.8°
Reaches altitude 10° 02:07:44 10° 195° (SSW) 3,646 - -31.3°
Exits shadow 02:09:33 16° 187° (S) 3,209 9.0 -31.0°
Maximum altitude 02:15:03 28° 141° (SE) 2,536 8.8 -30.2°
Drops below altitude 10° 02:22:26 10° 88° (E) 3,699 10.4 -29.2°
Sets 02:26:02 0° 78° (ENE) 4,705 11.3 -28.7°
